KOREASAT 5

导读 | 豆包AI

KOREASAT 5是韩国(KR)于2006年8月22日发射的通信卫星,由KT公司运营,定点于东经113度地球静止轨道。该卫星配备了大功率Ku波段转发器,兼具商用通信和军事侦察功能,可覆盖亚洲、中东及部分欧洲区域,承担广播电视传输、宽带通信服务,同时为韩国军方提供指挥通信支持,设计寿命约15年,目前已超期服役,仍在部分区域提供服务。

基本信息
目录编号:
29349
目录名称:
KOREASAT 5
国际标识:
2006-034A
轨道中心:
EARTH
卫星名称:
KOREASAT 5
卫星全名:
--
卫星状态:
在轨 (已飞行7191 天)
发射日期:
2006-08-22 UTC
国别 :
韩国 (KR)
星等 :
--
轨道信息
数据来源 国际轨道数据 AOE轨道数据
星历时间 2026-04-30T20:13:19+0800
8小时前
查看轨道信息
2026-05-01T00:00:00+0800
4小时前
查看轨道信息
半长轴 42165.065km 42165.037km
偏心率 0.0001985 0.0002016
轨道倾角 1.664° 1.664°
近地点辐角 348.796° 350.379°
升交点赤经 83.547° 83.549°
平近点角 82.490° 137.729°
近地点 35778.558km 35778.399km
远地点 35795.298km 35795.401km
周期 1436.114分钟 1436.112分钟
每日圈数 1.002706 1.002707
详细信息
使用方式:
暂无
2D轨道图
3D轨道图
轨道高度分析图
轨道倾角分析图
轨道综合分析图
查看轨道综合分析图